DELTA 1 DEB, 5971

Orbit data source: Space-Track

DELTA 1 DEB, 5971 is space debris in SSO originally from a launch on Thu, 26 Jan 1967 UTC launched from the Air Force Western Test Range (AFWTR). Debris objects in space refer to the collection of defunct objects orbiting the Earth. Examples of debris include non-operational satellites, rocket bodies, and fragments generated from explosions, collisions, or faulty payload assembly.

Loading next visibility...
Identifier
5971, 1967-006E
Orbit
SSO
Last TLE update
1 day ago
Origin
Manufacturer
Unknown
Mission
Spacecraft
Bus & Motor
Unknown
Mass
Unknown
Launch date (UTC)
1967-01-26 (58 years ago)
Launch vehicle
Unknown
Launch site
Air Force Western Test Range (AFWTR)
Object type
Payload
Rocket body
Debris
Shape & HBR
Unknown
Radar Cross Section
Small (<0.1 m²)

Expand to show TLE details & history

TLE from 1 day ago
0 DELTA 1 DEB
1  5971U 67006E   25128.25200273 -.00000030  00000-0  83871-4 0  9995
2  5971 101.9224  50.1282 0113293  54.4393  98.9787 12.73466558709728
Epoch: 2025-05-08T06:02Z
Definitive object data (Epoch: 2025-05-08T06:02:53.035Z)
Latitude
24.7476°
Longitude
-81.36044°
Altitude
1,385.23 km
Speed
7.162 km/s
True Right ascension
15h 42m 44s
True Declination
24° 37' 40"
Sunlit
Object was in full shadow at TLE epoch
Visualization TLE readout
Latitude
17.21161°
Longitude
-82.12064°
Altitude
1,398.968 km
Speed
7.148 km/s
Apparent Right ascension
17h 13m 43s
Apparent Declination
-31° 26' 50"
Sunlit
Object is in full shadow
Visualization observer readout
Local Sidereal Time
14:44:49
Azimuth
148.313° SSE
Elevation
10.735°
Doppler factor
1
Orbital elements
Apogee altitude
1,453.105 km
Perigee altitude
1,277.648 km
Semi-major axis
7,743.514 km
Eccentricity
0.0113293
Inclination
101.9224°
RAAN
50.1282°
Arg. of periapsis
54.4393°
True anomaly
100.2581°
Mean anomaly
98.9787°
Eccentric anomaly
99.6187°
Mean motion
3.1852 °/min
BSTAR
0.000083871
Orbital period
113.02 mins
Loading maneuver chart data...
Loading SW <> Apogee altitude chart data...
Loading historical data...
Loading historical data...
Loading historical data...
Loading historical data...
Loading historical data...
Loading historical data...
Loading historical data...
Other satellites on launch #6 in the year 1967 (1967-01-26 UTC)

DELTA 1 DEB Visibility forecast

Observer location: undefined°, undefined°

Span
Click to sort rows by Start time (UTC) header in descending order
Start Az.
Max El. time (UTC)
Max El. Az.
Max El.
End time (UTC)
End Az.
14 mins2025-05-09 08:14:57.496Z9.695° NNE2025-05-09 08:20:57.496Z302.368° NW42.225°2025-05-09 08:28:57.496Z213.405° SW
5 mins2025-05-09 10:08:57.496Z327.362° NNW2025-05-09 10:10:57.496Z310.793° NW13.578°2025-05-09 10:13:57.496Z287.196° WNW
11 mins2025-05-09 17:13:57.496Z109.498° ESE2025-05-09 17:18:57.496Z58.12° ENE27.014°2025-05-09 17:24:57.496Z2.189° NNE
12 mins2025-05-09 19:03:57.496Z184.096° SSW2025-05-09 19:09:57.496Z267.471° W39.264°2025-05-09 19:15:57.496Z331.425° NNW
|